Regional Weather Roundup
Issued by NWS Midland/Odessa, TX

Skip options and go directly to product.
Home | Oldest Version | Next Version | Current Version | All | Text Only | Save Text | Print | Product List | Glossary On

Skip product version selection by date and time.   
917
ASUS44 KMAF 311001
RWRMAF
MIDLAND AREA WEATHER ROUNDUP
NATIONAL WEATHER SERVICE MIDLAND TX
500 AM CDT TUE MAR 31 2015

...IN SOUTHWEST TEXAS AND SOUTHEAST NEW MEXICO...

CITY           SKY/WX    TMP DP  RH WIND       PRES   REMARKS
ALPINE         CLOUDY    60  43  52 SW7       30.16S
ANDREWS        FAIR      58  56  91 SW9       30.02F
ARTESIA        PTCLDY    48  39  71 W9        30.03F
BIG SPRING     PTCLDY    64  57  80 S8        30.02F
CARLSBAD       PTCLDY    52  45  77 W5        30.01F
DRYDEN           N/A     63  59  87 N5        30.00F
FORT STOCKTON  MOCLDY    63  52  67 S8        30.00F
GUAD PASS      CLOUDY    64  28  25 SW8       30.14F
HOBBS          CLEAR     50  50 100 CALM      30.05S
MARFA          CLOUDY    54  45  71 N6        30.15F
MIDLAND AIRPK  PTCLDY    64  57  79 S7        30.01F
MIDLAND INTL   PTCLDY    62  56  80 SW6       30.00F
ODESSA         MOCLDY    64  56  75 SW13      30.01F
PECOS          MOCLDY    56  52  85 NW3       29.99F
PRESIDIO       FAIR      69  51  52 CALM      30.03F
SEMINOLE       PTCLDY    50  46  86 CALM      30.04F
SNYDER         PTCLDY    59  55  87 S8        30.00F
WINK           MOCLDY    57  53  86 N3        29.99F
$$
...OTHER STATIONS IN TEXAS...

CITY           SKY/WX    TMP DP  RH WIND       PRES   REMARKS
ABILENE        PTCLDY    67  60  78 S15G22    29.97F
AMARILLO       CLEAR     48  43  82 SW10      30.01F
AUSTIN         CLOUDY    67  63  87 S14       30.02F
BROWNSVILLE    CLOUDY    69  68  96 SE8       30.03S
CORPUS CHRISTI CLOUDY    66  65  96 S6        30.03F
DALLAS FTW     MOCLDY    65  62  90 S8        29.96R
DEL RIO        MOCLDY    67  64  90 E9        29.99F
EL PASO        CLOUDY    72  33  24 SW15      30.04F
HOUSTON INT    FAIR      65  63  93 S3        30.06S
LUBBOCK        PTCLDY    50  45  83 W7        30.00F
SAN ANGELO     MOCLDY    66  61  84 S12       29.99F
SAN ANTONIO    CLOUDY    67  64  90 S9        30.04F
WACO           CLOUDY    66  63  90 S13       30.00F
WICHITA FALLS  NOT AVBL
$$
...OTHER LOCATIONS IN NEW MEXICO...

CITY           SKY/WX    TMP DP  RH WIND       PRES   REMARKS
ALAMAGORDO     PTCLDY    55  27  33 NE7       30.06F
ALBUQUERQUE    PTCLDY    54  25  32 SE3       30.12F
CANNON AFB     CLEAR     55  46  73 W14       30.04F
CLOVIS         CLEAR     50  43  76 W9        30.03F
HOLLOMAN AFB   CLOUDY    55  28  36 N5        30.04F
ROSWELL        CLEAR     49  43  80 N5        30.03F
RUIDOSO        CLOUDY    55  25  30 W8        30.22F
SANTA FE       CLEAR     43  21  41 NE10      30.17F WCI  37
TRUTH OR CONSE PTCLDY    59  27  29 NW7       30.08F
TUCUMCARI      CLEAR     50  34  54 W7        30.02F
$$

USA.gov is the U.S. government's official web portal to all federal, state and local government web resources and services.